Air Resources Laboratory banner image
Air Resources Laboratory web site National Oceanic and Atmospheric Administration (NOAA)

id roundup


Office: BOI

ASUS45 KBOI 210810
RWRID

IDAHO REGIONAL WEATHER ROUNDUP
NATIONAL WEATHER SERVICE BOISE ID
200 AM MDT TUE AUG 21 2018

NOTE: "FAIR" INDICATES FEW OR NO CLOUDS BELOW 12000 FEET
WITH NO SIGNIFICANT WEATHER AND/OR OBSTRUCTIONS TO VISIBILITY

IDZ012-014-210900-
SOUTHWEST IDAHO


CITY           SKY/WX    TMP DP  RH WIND       PRES   REMARKS
BOISE          CLEAR     63  46  54 CALM      30.00R
CALDWELL       CLEAR     60  48  64 W10       29.99S
MOUNTAIN HOME  CLEAR     63  42  47 NW12      29.98R
$$

IDZ016-017-210900-
SOUTHCENTRAL IDAHO


CITY           SKY/WX    TMP DP  RH WIND       PRES   REMARKS
BURLEY         CLEAR     64  41  42 VRB5      30.04R
JEROME         CLEAR     60  42  51 S3        30.03R
TWIN FALLS     CLEAR     65  39  38 SW14      30.03R
$$

IDZ019>023-210900-
SOUTHEAST IDAHO


CITY           SKY/WX    TMP DP  RH WIND       PRES   REMARKS
IDAHO FALLS    CLEAR     51  42  71 N6        30.08S
POCATELLO      CLOUDY    52  43  71 SW7       30.07R
REXBURG        CLEAR     54  41  61 NE7       30.08F
$$

IDZ006-010-011-018-031-032-210900-
CENTRAL IDAHO MOUNTAINS


CITY           SKY/WX    TMP DP  RH WIND       PRES   REMARKS
MCCALL         PTCLDY    52  44  74 N3        30.13R
HAILEY         CLEAR     55  37  50 CALM      30.12S
STANLEY          N/A     38  31  76 S5        30.19S WCI  34
SALMON         CLOUDY    55  47  74 VRB3      30.17S
CHALLIS        PTCLDY    53  44  71 NW7       30.15R
$$

IDZ002-004-006-007-026-210900-
NORTHERN IDAHO


CITY           SKY/WX    TMP DP  RH WIND       PRES   REMARKS
LEWISTON       CLEAR     65  48  54 E6        30.10S
LOWELL           N/A     55  44  66 CALM      30.15
COEUR D'ALENE  CLEAR     57  41  55 NE8       30.19S
MULLAN PASS    CLEAR     45  34  65 E8        30.28S
$$




Office: LKN ASUS65 KLKN 210708 RTPLKN Regional Temperature And Precipitation Table...Late Evening National Weather Service Elko NV 1208 AM PDT Tue Aug 21 2018 ***Automated Airport Stations*** Values represent lows over the last 24 hours... Highs over the last 24 hours and precipitation over the last 24 hours...ending at 10 PM PST/11 PM PDT. .BR LKN 0820 P DH22/TAIRZS/TAIRZI/PPDRZZ/SFDRZZ/SDIRZZ : :ID Station Elev / Max / Min / Pcpn / :.................................................................... : EKO : Elko ASOS 5074 : 91 / 49 / 0.00 / ELY : Ely ASOS 6262 : 92 / 50 / 0.00 / P68 : Eureka ASOS 5936 : 92 / 52 / 0.00 / TPH : Tonopah ASOS 5395 : 96 / 59 / 0.00 / ENV : Wendover AWOS 4236 : 94 / 64 / 0.00 / WMC : Winnemucca ASOS 4314 : 89 / 60 / 0.00 / .END ***Manual synoptic reporting stations in north and central Nevada*** Values reflect the previous 24 hours ending at 10 PM PST/11 PM PDT *Snow stations may only report during periods of snowfall* .BR LKN 0820 P DH22/TAIRZX/TAIRZN/PPDRZZ/SFDRZZ/SDIRZZ : Snow Snow :ID Station Elev Max / Min / Pcpn / Fall / Dpth :.................................................................... : SLKN2 : Elko NWS Office 5235 : 90 / 49 / 0.00 / 0.0 / 0 SELN2 : Ely Snow 6487 : M / M / M / M / M SWIN2 : Winnemucca Snow 4355 : M / M / M / M / M .END ***Cooperative stations in north and central Nevada*** Values reflect the previous 24 hours Report time as indicated .BR LKN 0820 P DH16/TAIRZX/TAIRZN/PPDRZZ/SFDRZZ/SDIRZZ : Snow Snow :ID Station Elev Time / Max / Min / Pcpn / Fall / Dpth :.................................................................... : B23 : Battle MT. 4SE 4505 5 PM: M / M / M / M / M BOWN2 : Beowawe 4700 4 PM: 96 / 51 / 0.00 / 0.0 / 0 MCDN2 : McDermitt 4340 4 PM: M / M / M / M / M ORVN2 : Orovada 3W 4200 8 PM: 99 / 68 / 0.00 / 0.0 / 0 WLSN2 : Wells 7NNE 5831 9 PM: 87 / 45 / 0.00 / 0.0 / 0 AWH : Wild Horse Res. 6239 6 PM: 83 / 43 / 0.00 / 0.0 / 0 .END M = Missing data T = Trace amounts ASOS = Automated Surface Observing System AWOS = Automated Weather Observation System NWS = National Weather Service These data are preliminary and have not undergone final quality control (QC) by NCEI. Therefore, these data are subject to revision. Final and certified data can be accessed at the National Centers For Environmental Information (NCEI) - www.ncei.noaa.gov $$